GSAT-10 (GAGAN/PRN 128)

Last updated on Thu Jul 03 2025 00:03:25 GMT+0000 (Coordinated Universal Time)

1 38779U 12051B 25183.58531825 -.00000158 00000+0 00000+0 0 9992 2 38779 0.0627 267.4229 0008388 190.1006 117.0479 1.00272169 46598
UTC large
Height (km)
Speed (km/s)
/
Latitude / Longitude
Inclination (degrees)
Orbital Period (minutes)
Azimuth
Elevation
Range (km)
Doppler Factor

Next 0 passes for location: London (51.5072 / 0.1276)

Sorry there are no passes over London.